AirNav   Everest Fuels
 
 735 users online  

9MO1 Missouri Baptist Hospital Heliport
St Louis, Missouri, USA

GOING TO ST LOUIS?


FAA INFORMATION EFFECTIVE 18 JUNE 2020

Location

FAA Identifier: 9MO1
Lat/Long: 38-38-08.1800N 090-26-43.3800W
38-38.136333N 090-26.723000W
38.6356056,-90.4453833
(estimated)
Elevation: 713 ft. / 217 m (estimated)
Variation: 02E (1985)
Time zone: UTC -5 (UTC -6 during Standard Time)
Zip code: 63131

Heliport Operations

Heliport use: Private use, MEDICAL.
Activation date: 06/1974
Control tower: no
ARTCC: KANSAS CITY CENTER
FSS: SAINT LOUIS FLIGHT SERVICE STATION
Attendance: CONTINUOUS
Wind indicator: yes
Segmented circle: no

Heliport Communications

WX ASOS at STL (8 nm NE): 125.025 (314-890-4790)
WX ASOS at SUS (10 nm W): 134.8 (314-890-7255)
WX ASOS at CPS (14 nm E): PHONE 618-332-0001
WX ASOS at SET (18 nm N): 118.075 (636-250-4590)

Nearby radio navigation aids

VOR radial/distance  VOR name  Freq  Var
STLr172/13.6ST LOUIS VORTAC117.4001E
FTZr093/24.9FORISTELL VORTAC110.8005E
TOYr252/25.4TROY VORTAC116.0004E

 
NDB name  Hdg/Dist  Freq  Var  ID
EAVES119/5.422701WFZ ..-. --..
CIVIC MEMORIAL231/23.826301WCVM -.-. ...- --

Heliport Services

Runway Information

Helipad H1

Dimensions: 45 x 44 ft. / 14 x 13 m
Surface: mats
Latitude: 38-38.136333N
Longitude: 090-26.723000W
Elevation: 713.0 ft.
Traffic pattern: leftleft

Heliport Ownership and Management from official FAA records

Ownership: Privately-owned
Owner: MISSOURI BAPTIST HOSPITAL
3015 N BALLAS RD
ST LOUIS, MO 63131
Phone 314-996-5253
Manager: KEITH STUMPF
3015 N BALLAS RD
ST LOUIS, MO 63131
Phone 314-996-5253

Additional Remarks

INGRESS/EGRESS LIMITED FROM H1 FROM 355 DEG CLOCKWISE TO 175 DEG, RELATIVE TO TRUE NORTH.
FOR CD CTC ST LOUIS APCH AT 314-890-1018.

Instrument Procedures

There are no published instrument procedures at 9MO1.

Some nearby airports with instrument procedures:

1H0 - Creve Coeur Airport (6 nm NW)
KSTL - St Louis Lambert International Airport (8 nm NE)
KSUS - Spirit of St Louis Airport (10 nm W)
KCPS - St Louis Downtown Airport (14 nm E)
KSET - St Charles County Smartt Airport (18 nm N)
 
Loc | Ops | Rwys | IFR | FBO | Links
Com | Nav | Svcs | Stats | Notes
Area around 9MO1 (Missouri Baptist Hospital Heliport)
 
Road maps at: MapQuest Bing Google
 
Aerial photo
No photo
 
Sectional chart

 
Airport distance calculator
Flying to Missouri Baptist Hospital Heliport? Find the distance to fly.

From to 9MO1

Sunrise and sunset
Times for 06-Jul-2020
 Local
(UTC-5)
 Zulu
(UTC)
Morning civil twilight05:1410:14
Sunrise05:4510:45
Sunset20:2801:28
Evening civil twilight21:0002:00

Current date and time
Zulu (UTC)  07-Jul-2020 03:51:10
Local (UTC-5)  06-Jul-2020 22:51:10
 
METAR
KSTL 
8nm NE 
070251Z 36009KT 10SM -RA SCT060 BKN090 BKN110 BKN250 28/20 A2997 RMK AO2 RAB38 SLP135 P0000 60000 T02780200 53009
KSUS 
10nm W 
070254Z AUTO 00000KT 9SM CLR 26/23 A2996 RMK AO2 SLP135 T02560228 53011
KCPS 
14nm E 
070320Z AUTO 00000KT 10SM CLR 26/24 A2997 RMK AO2 LTG DSNT SE T02560239
KSET 
18nm N 
070254Z AUTO 01003KT 10SM SCT060 29/23 A2995 RMK AO2 TSB31E46 SLP137 T02890228 50007
TAF
KSTL 
8nm NE 
070215Z 0702/0806 VRB04KT P6SM VCTS SCT060CB TEMPO 0702/0704 TS FM070400 VRB03KT P6SM FEW060 FM071600 VRB03KT P6SM SCT040 FM080300 VRB03KT P6SM FEW250
KSUS 
10nm W 
062015Z 0620/0718 03010KT P6SM VCSH SCT060 FM062200 00000KT P6SM SCT060 FM070900 00000KT 6SM BR FEW250 FM071100 00000KT 5SM BR SCT250 FM071400 VRB04KT P6SM SCT250
KCPS 
14nm E 
061720Z 0618/0718 12003KT P6SM SKC FM070900 00000KT 5SM BR FEW250 FM071400 VRB04KT P6SM SCT250
NOTAMs
Click for the latest NOTAMs
NOTAMs are issued by the DoD/FAA and will open in a separate window not controlled by AirNav.

 

 
 

Would you like to see your business listed on this page?

 If your business provides an interesting product or service to pilots, flight crews, aircraft, or users of the Missouri Baptist Hospital Heliport, you should consider listing it here.  To start the listing process, click on the button below
 
Add a business
 

Other Pages about Missouri Baptist Hospital Heliport

Update a link
 
Copyright © AirNav, LLC. All rights reserved. Privacy Policy  Contact